Regional Weather Roundup
Issued by NWS

Home | Current Version | Previous Version | Graphics & Text | Print | Product List | Glossary On
Versions: 1 2 3 4 5 6 7 8 9 10 11 12 13 14 15 16 17 18 19 20 21 22 23 24 25 26 27 28 29 30 31 32 33 34 35 36 37 38 39 40 41 42 43 44 45 46 47 48 49 50
000
ASUS45 KCYS 252210
RWRWY

WYOMING REGIONAL WEATHER ROUNDUP
NATIONAL WEATHER SERVICE CHEYENNE WY
400 PM MDT SUN SEP 25 2016

NOTE:  "FAIR" INDICATES FEW OR NO CLOUDS BELOW 12,000 FEET
WITH NO SIGNIFICANT WEATHER AND/OR OBSTRUCTIONS TO VISIBILITY.

WYZ001-252300-
YELLOWSTONE NATIONAL PARK

CITY           SKY/WX    TMP DP  RH WIND       PRES   REMARKS
LK YELLOWSTONE   N/A     54  32  43 W10       30.53S
W YELLOWSTONE  NOT AVBL

$$
WYZ002>013-054>058-071-098>099-252300-
NORTHERN WYOMING

CITY           SKY/WX    TMP DP  RH WIND       PRES   REMARKS
JACKSON        SUNNY     63  30  29 SW6       30.48S
CODY           FAIR      61  40  45 E10       30.37S
GREYBULL       FAIR      61  39  44 S8        30.36S
WORLAND        FAIR      62  36  37 E3        30.36F
SHERIDAN       FAIR      65  37  35 N5        30.33F
BUFFALO        FAIR      59  36  42 CALM      30.37F
GILLETTE       FAIR      57  36  45 W8        30.36S
HULETT         FAIR      59  32  36 NW10      30.36S
NEWCASTLE      FAIR      59  28  31 NW14G23   30.36F

$$
WYZ014>020-022>026-101>103-252300-
CENTRAL WYOMING

CITY           SKY/WX    TMP DP  RH WIND       PRES   REMARKS
BIG PINEY      FAIR      64  30  27 NW13G20   30.48S
PINEDALE       FAIR      61  30  31 W14       30.47F
DUBOIS         FAIR      59  30  33 NW18G24   30.45R
LANDER         FAIR      62  41  46 E9        30.38F
RIVERTON       FAIR      60  38  43 SE7       30.40F
CASPER         FAIR      63  34  33 W12G18    30.38F
DOUGLAS        FAIR      65  33  30 NW15      30.37F

$$
WYZ021-027>030-104>119-252300-
SOUTHERN WYOMING

CITY           SKY/WX    TMP DP  RH WIND       PRES   REMARKS
EVANSTON       FAIR      60  30  32 N9        30.51S
FORT BRIDGER   FAIR      64  30  28 NW10      30.53S
ROCK SPRINGS   FAIR      58  30  34 MISG      30.48S
DIXON          FAIR      59  32  35 SW5       30.51S
RAWLINS        FAIR      59  32  36 SW12G21   30.47S
SARATOGA       FAIR      59  30  33 SW10G16   30.49S
LARAMIE        FAIR      58  28  32 VRB5      30.44S
CHEYENNE       FAIR      63  29  27 NW13G24   30.39S
TORRINGTON     FAIR      65  32  29 N7G22     30.34F
PINE BLUFFS    FAIR      64  30  27 N16G25    30.38S

$$



USA.gov is the U.S. government's official web portal to all federal, state and local government web resources and services.